Showing default

COSMOS 2268, 22999

Orbit data source: Space-Track

COSMOS 2268, 22999 is a payload satellite owned by VKS (CIS) in LEO that was launched on Sat, 12 Feb 1994 UTC via a TSIKLON-3 launch vehicle from the Plesetsk Missile And Space Complex (PKMTR). Payload-class satellites include a variety of spacecraft equipped with specific instruments for various scientific and technological missions. These include communications satellites like Starlink; space stations such as the ISS; scientific satellites like the Hubble; Earth observation satellites from companies like Planet Labs, Umbra, and HawkEye 360; GPS; miniature CubeSats for education and research; and military/defense satellites.

Loading next visibility...
Identifier
22999, 1994-011A
Orbit
LEO
Country
Flag of CISCIS
Related business
Manufacturer
NPO PM
Mission
Defense Communications
Bus & Motor
STRELA-3, Unknown motor
Mass
225 kg wet, 225 kg dry
Launch date (UTC)
1994-02-12 (32 years ago)
Launch vehicle
TSIKLON-3
Launch site
Plesetsk Missile And Space Complex (PKMTR)
Object type
Payload
Rocket body
Debris
Shape & HBR
Cyl, 0.8 m
Radar Cross Section
1.257 m², Medium (>0.1 m² and < 1m²)

Expand to show TLE details & history
Last TLE update: 11 hours ago

TLE from 11 hours ago
0 COSMOS 2268
1 22999U 94011A   26035.50659539  .00000024  00000-0  77051-4 0  9994
2 22999  82.5728  65.0329 0011108 137.7352 335.2668 12.61224428472030
Epoch: 2026-02-04T12:09Z
TLE epoch observation values (Epoch: 2026-02-04T12:09:29.841Z)
Latitude
66.02036°
Longitude
-88.96902°
Altitude
1,421.41 km
Speed
7.16 km/s
True Right ascension
15h 12m 18s
True Declination
65° 54' 12"
Sunlit
Object was in daylight at epoch
Visualization orbit readout
Latitude
Unknown
Longitude
Unknown
Altitude
Unknown
Speed
Unknown
Apparent Right ascension
Unknown
Apparent Declination
Unknown
Sunlit
N/A
Visualization observer readout
Local Sidereal Time
01:00:20
Azimuth
Unknown
Elevation
Unknown
Doppler factor
Unknown
Orbital elements
Apogee altitude
1,423.874 km
Perigee altitude
1,406.56 km
Semi-major axis
7,793.354 km
Eccentricity
0.00111
Inclination
82.5728°
RAAN
65.0329°
Arg. of periapsis
137.7352°
True anomaly
335.21348°
Mean anomaly
335.2668°
Eccentric anomaly
335.24014°
Mean motion
3.15469 °/min
Orbital period
114.12 mins
BSTAR
0.000077051
Loading maneuver chart data...
Computing Atmospheric mass density...
Loading historical data...
Loading historical data...
Loading historical data...
Loading historical data...
Loading historical data...
Loading historical data...
Loading historical data...

Documentation

Showing up to 5 results
|